Weather observations for the past three days for
Selinsgrove Penn Valley Airport
Imperial (Metric)
Date Time (edt) Wind (mph) Vis. (mi.) Weather Sky Cond. Temperature (ºF) Relative Humidity Wind Chill (°F) Heat Index (°F) Pressure Precipitation (in)
Air Dwpt 6 hour altimeter (in) sea level (mb) 1 hr 3 hr 6 hr
Max. Min.
23 10:53 N 7 10.00 Partly Cloudy SCT026 78.1 66.9 69% 80 30.07 1017.8
23 09:53 NW 8 10.00 Fair CLR 75 66 74% 76 30.06 1017.4
23 08:53 Vrbl 5 10.00 Mostly Cloudy BKN027 72 66 82% 30.05 1017.2
23 07:53 SW 3 10.00 Overcast OVC022 70 68 71.1 68 93% 30.03 1016.7 0.6
23 06:53 Vrbl 3 10.00 Partly Cloudy SCT021 70 68 93% 30 1015.8
23 05:53 Calm 10.00 Overcast FEW009 BKN018 OVC027 70 68 93% 29.98 1014.8
23 04:53 Calm 10.00 Overcast BKN009 BKN014 OVC021 69.1 68 96% 29.96 1014.3 0.6
23 02:53 Calm 1.25 Heavy Rain Fog/Mist SCT016 BKN037 BKN047 69.1 68 96% 29.96 1014.4 0.1
23 01:53 Calm 4.00 Fog/Mist FEW018 SCT060 OVC090 69.1 68 72 69.1 96% 29.95 1013.9 0.04
23 00:53 NW 3 6.00 Fog/Mist OVC065 69.1 68 96% 29.97 1014.4
22 23:53 E 3 10.00 Overcast FEW027 OVC090 70 68 93% 29.97 1014.5
22 22:53 E 3 8.00 Overcast SCT019 BKN026 OVC120 70 69.1 97% 29.99 1015.2 0.04
22 21:53 Calm 8.00 Overcast BKN017 OVC075 71.1 69.1 94% 30 1015.6 0.01
22 20:53 Calm 5.00 Light Rain Fog/Mist FEW021 BKN100 71.1 69.1 94% 29.99 1015.4 0.03
22 19:53 Calm 3.00 Light Rain Fog/Mist FEW019 BKN110 72 70 75.9 71.1 94% 30 1015.5 0.06 0.06
22 18:53 Calm 10.00 Partly Cloudy FEW024 SCT120 73 68 84% 30.01 1015.9
22 17:53 Calm 10.00 Mostly Cloudy FEW046 SCT070 BKN085 75 68 79% 76 29.99 1015.1
22 16:53 S 7 10.00 A Few Clouds FEW100 FEW120 75.9 66.9 74% 77 30 1015.6
22 15:53 S 6 10.00 Mostly Cloudy BKN110 75.9 68 77% 77 30 1015.7
22 14:53 SE 6 10.00 A Few Clouds FEW120 73.9 66 76% 30.01 1016.0
22 13:53 S 17 G 30 9.00 Light Rain SCT021 BKN032 OVC060 72 66 79 68 82% 30.04 1017.0
22 12:53 W 3 10.00 Mostly Cloudy SCT020 BKN027 BKN110 78.1 70 76% 80 30.03 1016.7
22 11:53 Calm 10.00 Overcast OVC015 75.9 68 77% 77 30.05 1017.4
22 10:53 Calm 10.00 Overcast OVC015 73.9 64.9 74% 30.06 1017.6
22 09:53 Calm 10.00 Overcast OVC016 73 64.9 76% 30.06 1017.7
22 08:53 Calm 10.00 Overcast OVC016 71.1 63 76% 30.06 1017.5
22 07:53 Calm 10.00 Mostly Cloudy BKN019 68 63 68 63 84% 30.06 1017.6
22 06:53 Calm 10.00 Fair CLR 64.9 62.1 90% 30.06 1017.6
22 05:53 NW 3 10.00 Fair CLR 64 61 90% 30.05 1017.2
22 04:53 NW 3 10.00 Fair CLR 64 61 90% 30.06 1017.4
22 03:53 Calm 10.00 Fair CLR 64 61 90% 30.06 1017.6
22 02:53 NW 3 10.00 Fair CLR 64.9 61 87% 30.07 1017.8
22 01:53 Calm 10.00 Fair CLR 64 60.1 79 63 87% 30.08 1018.2
22 00:53 Calm 10.00 A Few Clouds FEW075 63 61 93% 30.09 1018.4
21 23:53 Calm 10.00 Fair CLR 64 61 90% 30.08 1018.3
21 22:53 Calm 10.00 Fair CLR 66 62.1 87% 30.08 1018.1
21 21:53 Calm 10.00 Fair CLR 69.1 62.1 78% 30.07 1017.8
21 20:53 Calm 10.00 Fair CLR 71.1 63 76% 30.04 1016.7
21 19:53 E 3 10.00 Fair CLR 79 60.1 87.1 79 52% 80 30.03 1016.5
21 18:53 NE 6 10.00 Fair CLR 84 57.9 41% 83 30.03 1016.4
21 17:53 NE 8 10.00 Fair CLR 84.9 57.9 40% 84 30.03 1016.5
21 16:53 NE 7 10.00 Fair CLR 87.1 61 42% 87 30.03 1016.6
21 15:53 E 6 10.00 Fair CLR 84.9 60.1 43% 85 30.04 1017.0
21 14:53 NE 8 10.00 Fair CLR 84.9 61 45% 85 30.05 1017.2
21 13:53 N 3 10.00 Fair CLR 84.9 62.1 86 70 46% 85 30.05 1017.2
21 12:53 NE 8 10.00 Fair CLR 82.9 64 53% 84 30.06 1017.5
21 11:53 Vrbl 5 10.00 A Few Clouds FEW028 81 66.9 62% 83 30.06 1017.5
21 10:53 Calm 10.00 A Few Clouds FEW023 81 68 65% 84 30.07 1017.7
21 09:53 Vrbl 6 10.00 Partly Cloudy SCT019 79 68 69% 81 30.07 1017.9
21 08:53 Calm 10.00 Fair CLR 73.9 68 82% 30.07 1017.8
21 07:53 Calm 7.00 Fair CLR 70 66.9 70 64 90% 30.07 1017.8
21 06:53 N 5 5.00 Fog/Mist CLR 66.9 64.9 93% 30.06 1017.5
21 05:53 Calm 5.00 Fog/Mist FEW080 FEW100 64.9 64 97% 30.05 1017.2
21 04:53 Calm 7.00 Mostly Cloudy BKN025 66 64.9 96% 30.04 1016.8
21 03:53 Calm 5.00 Fog/Mist CLR 66 64.9 96% 30.03 1016.6
21 02:53 Calm 6.00 Fog/Mist CLR 66.9 64.9 93% 30.04 1016.8
21 01:53 Calm 10.00 Fair CLR 68 66 78.1 68 93% 30.04 1016.7
21 00:53 Calm 10.00 Fair CLR 69.1 66 90% 30.04 1016.8
20 23:53 SW 3 10.00 Mostly Cloudy BKN075 BKN090 73 66 79% 30.04 1016.9
20 22:53 S 5 10.00 A Few Clouds FEW100 73 66.9 81% 30.05 1017.2
20 21:53 S 9 10.00 Mostly Cloudy SCT036 BKN110 73.9 69.1 85% 30.05 1017.4
20 20:53 SE 3 10.00 Overcast SCT047 OVC100 75.9 68 77% 77 30.04 1016.8
20 19:53 SE 5 10.00 Mostly Cloudy FEW045 SCT065 BKN095 78.1 69.1 82 75 74% 80 30.03 1016.3
20 18:53 SE 3 10.00 A Few Clouds FEW060 80.1 66.9 64% 82 30.03 1016.5
20 17:53 S 5 10.00 Fair CLR 79 66 65% 81 30.03 1016.7
20 16:53 Calm 10.00 A Few Clouds FEW120 78.1 68 71% 80 30.05 1017.3
20 15:53 S 3 10.00 Light Rain OVC100 75 66.9 76% 76 30.06 1017.6
20 14:53 Calm 10.00 Mostly Cloudy FEW065 BKN110 81 64.9 58% 83 30.07 1017.8
20 13:53 Vrbl 6 10.00 Overcast BKN043 BKN055 OVC070 81 64 82 66 57% 83 30.07 1018.1
20 12:53 SW 5 10.00 Partly Cloudy FEW055 SCT090 82 66 58% 84 30.08 1018.3
20 11:53 S 9 10.00 Partly Cloudy FEW034 SCT050 79 64.9 62% 81 30.09 1018.6
Date Time (edt) Wind (mph) Vis. (mi.) Weather Sky Cond. Air Dwpt Max. Min. Relative Humidity Wind Chill (°F) Heat Index (°F) altimeter (in) sea level (mb) 1 hr 3 hr 6 hr
6 hour
Temperature (ºF) Pressure Precipitation (in)